Regional Weather Roundup
Issued by NWS Charleston, WV

Home | Current Version | Previous Version | Text Only | Print | Product List | Glossary On
Versions: 1 2 3 4 5 6 7 8 9 10 11 12 13 14 15 16 17 18 19 20 21 22 23 24 25 26 27 28 29 30 31 32 33 34 35 36 37 38 39 40 41 42 43 44 45 46 47 48 49 50
000
ASUS41 KRLX 291210
RWRRLX
West Virginia Regional Weather Roundup
National Weather Service Charleston WV
800 AM EDT FRI AUG 29 2014

Note: "fair" indicates few or no clouds below 12,000 feet with no
significant weather and/or obstructions to visibility.

WVZ003-291300-
Northern Panhandle of West Virginia

CITY           SKY/WX    TMP DP  RH WIND       PRES   REMARKS
WHEELING       SUNNY     53  51  93 E6        30.17R
$$

WVZ009-291300-
Northwest West Virginia

CITY           SKY/WX    TMP DP  RH WIND       PRES   REMARKS
PARKERSBURG    SUNNY     56  55  97 CALM      30.17S
$$

WVZ006-291300-
Western West Virginia

CITY           SKY/WX    TMP DP  RH WIND       PRES   REMARKS
HUNTINGTON     SUNNY     64  61  90 NE5       30.11R
$$

WVZ015-291300-
West Central West Virginia

CITY           SKY/WX    TMP DP  RH WIND       PRES   REMARKS
CHARLESTON     PTSUNNY   62  62 100 NE6       30.12R FOG
$$

WVZ031-291300-
North Central West Virginia

CITY           SKY/WX    TMP DP  RH WIND       PRES   REMARKS
CLARKSBURG     SUNNY     54  52  93 NE5       30.16R
MORGANTOWN     SUNNY     59  52  77 CALM      30.18R
$$

WVZ035-042-045-291300-
South Central West Virginia

CITY           SKY/WX    TMP DP  RH WIND       PRES   REMARKS
BECKLEY        SUNNY     65  58  78 SE6       30.19R
BLUEFIELD      SUNNY     66  57  72 SE9       30.22R
LEWISBURG      SUNNY     59  57  91 CALM      30.22R
$$

WVZ047-291300-
Northern Mountains of West Virginia

CITY           SKY/WX    TMP DP  RH WIND       PRES   REMARKS
ELKINS         FOG       56  55  97 CALM      30.21R VSB 1/2
$$

WVZ052-291300-
Eastern Panhandle of West Virginia

CITY           SKY/WX    TMP DP  RH WIND       PRES   REMARKS
MARTINSBURG    SUNNY     57  51  80 CALM      30.21R
PETERSBURG     NOT AVBL
$$


USA.gov is the U.S. government's official web portal to all federal, state and local government web resources and services.